TAM3638 SBGR-SBCY

Flight info

Callsign TAM3638
Flight time 1h 46m
Altitude 34000
Route GERTU UL201 PANAB DCT RODAD UM775 SINIP
Aircraft A321/M-SDE3FGHIRWY/LB1

Departure

Time 2026-05-06 09:34
Airport São Paulo/Guarulhos–Governor André Franco Montoro International Airport (SBGR)

Arrival

Time 2026-05-06 11:21
Airport Várzea Grande–Marechal Rondon International Airport (SBCY)
Time Latitude Longitude Altitude Speed Heading
2026-05-06 09:26 -23.42867 -46.48349 2465 ft 0 kts 85°
2026-05-06 09:27 -23.42868 -46.48358 2465 ft 3 kts 85°
2026-05-06 09:28 -23.42869 -46.48379 2465 ft 3 kts 85°
2026-05-06 09:28 -23.42871 -46.48399 2465 ft 3 kts 85°
2026-05-06 09:28 -23.42871 -46.48420 2465 ft 3 kts 128°
2026-05-06 09:28 -23.42861 -46.48427 2466 ft 0 kts 179°
2026-05-06 09:30 -23.42869 -46.48427 2465 ft 6 kts 179°
2026-05-06 09:30 -23.42939 -46.48446 2467 ft 12 kts 193°
2026-05-06 09:31 -23.43017 -46.48449 2470 ft 10 kts 175°
2026-05-06 09:31 -23.43080 -46.48434 2465 ft 8 kts 165°
2026-05-06 09:31 -23.43126 -46.48420 2468 ft 6 kts 164°
2026-05-06 09:31 -23.43160 -46.48409 2469 ft 6 kts 163°
2026-05-06 09:32 -23.43227 -46.48388 2470 ft 14 kts 163°
2026-05-06 09:32 -23.43335 -46.48353 2467 ft 18 kts 163°
2026-05-06 09:32 -23.43414 -46.48289 2462 ft 12 kts 85°
2026-05-06 09:32 -23.43403 -46.48239 2461 ft 0 kts 73°
2026-05-06 09:33 -23.43400 -46.48230 2461 ft 6 kts 73°
2026-05-06 09:33 -23.43323 -46.47947 2466 ft 73 kts 73°
2026-05-06 09:33 -23.43122 -46.47203 2465 ft 129 kts 73°
2026-05-06 09:33 -23.42826 -46.46107 2465 ft 171 kts 73°
2026-05-06 09:34 -23.42478 -46.44774 2741 ft 186 kts 74°
2026-05-06 09:34 -23.42102 -46.43462 3361 ft 183 kts 72°
2026-05-06 09:34 -23.41690 -46.42083 3543 ft 197 kts 71°
2026-05-06 09:34 -23.41254 -46.40622 3663 ft 214 kts 72°
2026-05-06 09:35 -23.40781 -46.39023 3787 ft 232 kts 72°
2026-05-06 09:35 -23.40268 -46.37261 3940 ft 255 kts 72°
2026-05-06 09:35 -23.39538 -46.35467 4438 ft 264 kts 58°
2026-05-06 09:35 -23.38548 -46.33773 5093 ft 267 kts 58°
2026-05-06 09:36 -23.37548 -46.32062 5758 ft 269 kts 58°
2026-05-06 09:36 -23.36542 -46.30331 6420 ft 272 kts 59°
2026-05-06 09:36 -23.35525 -46.28579 7058 ft 275 kts 59°
2026-05-06 09:36 -23.34501 -46.26813 7676 ft 277 kts 59°
2026-05-06 09:37 -23.33467 -46.25034 8313 ft 280 kts 59°
2026-05-06 09:37 -23.32421 -46.23230 8944 ft 283 kts 59°
2026-05-06 09:37 -23.31369 -46.21408 9574 ft 286 kts 59°
2026-05-06 09:37 -23.30305 -46.19566 10194 ft 289 kts 58°
2026-05-06 09:38 -23.29213 -46.17680 10491 ft 304 kts 58°
2026-05-06 09:38 -23.28050 -46.15676 10622 ft 324 kts 59°
2026-05-06 09:38 -23.26810 -46.13542 10738 ft 342 kts 58°
2026-05-06 09:38 -23.25508 -46.11302 10935 ft 357 kts 58°
2026-05-06 09:39 -23.24132 -46.09030 11382 ft 363 kts 53°
2026-05-06 09:39 -23.22388 -46.07027 11886 ft 368 kts 41°
2026-05-06 09:39 -23.20261 -46.05449 12398 ft 373 kts 29°
2026-05-06 09:39 -23.17839 -46.04387 12909 ft 379 kts 16°
2026-05-06 09:40 -23.15222 -46.03957 13424 ft 384 kts
2026-05-06 09:40 -23.12552 -46.04232 13924 ft 389 kts 348°
2026-05-06 09:40 -23.07777 -46.06964 14839 ft 396 kts 316°
2026-05-06 09:41 -23.05947 -46.09208 15278 ft 398 kts 309°
2026-05-06 09:41 -23.04180 -46.11528 15729 ft 400 kts 309°
2026-05-06 09:41 -23.02400 -46.13861 16186 ft 402 kts 309°
2026-05-06 09:41 -23.00631 -46.16169 16634 ft 404 kts 309°
2026-05-06 09:42 -22.98828 -46.18512 17070 ft 406 kts 309°
2026-05-06 09:42 -22.97011 -46.20869 17508 ft 408 kts 309°
2026-05-06 09:42 -22.95188 -46.23235 17945 ft 410 kts 309°
2026-05-06 09:42 -22.93355 -46.25616 18342 ft 412 kts 308°
2026-05-06 09:43 -22.91511 -46.28009 18724 ft 414 kts 308°
2026-05-06 09:43 -22.89800 -46.30523 19069 ft 415 kts 300°
2026-05-06 09:43 -22.88476 -46.33303 19433 ft 415 kts 294°
2026-05-06 09:43 -22.87226 -46.36138 19789 ft 417 kts 294°
2026-05-06 09:44 -22.85971 -46.38975 20168 ft 418 kts 294°
2026-05-06 09:44 -22.84707 -46.41819 20540 ft 420 kts 294°
2026-05-06 09:44 -22.83432 -46.44675 20912 ft 421 kts 294°
2026-05-06 09:44 -22.82150 -46.47539 21277 ft 423 kts 294°
2026-05-06 09:45 -22.80864 -46.50410 21634 ft 425 kts 294°
2026-05-06 09:45 -22.79569 -46.53301 21987 ft 427 kts 294°
2026-05-06 09:45 -22.78272 -46.56194 22342 ft 428 kts 294°
2026-05-06 09:45 -22.76969 -46.59108 22707 ft 430 kts 294°
2026-05-06 09:46 -22.75666 -46.62027 23074 ft 431 kts 294°
2026-05-06 09:46 -22.74362 -46.64951 23436 ft 433 kts 294°
2026-05-06 09:46 -22.73047 -46.67894 23774 ft 435 kts 294°
2026-05-06 09:46 -22.71726 -46.70844 24082 ft 436 kts 294°
2026-05-06 09:47 -22.70398 -46.73804 24358 ft 438 kts 293°
2026-05-06 09:47 -22.69081 -46.76739 24649 ft 440 kts 293°
2026-05-06 09:47 -22.67743 -46.79719 24934 ft 441 kts 293°
2026-05-06 09:47 -22.66396 -46.82710 25206 ft 443 kts 293°
2026-05-06 09:48 -22.65038 -46.85717 25502 ft 445 kts 293°
2026-05-06 09:48 -22.63674 -46.88733 25786 ft 447 kts 293°
2026-05-06 09:48 -22.62310 -46.91753 26089 ft 448 kts 292°
2026-05-06 09:48 -22.60939 -46.94791 26367 ft 450 kts 292°
2026-05-06 09:49 -22.59570 -46.97838 26636 ft 451 kts 292°
2026-05-06 09:49 -22.58195 -47.00898 26911 ft 453 kts 292°
2026-05-06 09:49 -22.56813 -47.03963 27175 ft 454 kts 292°
2026-05-06 09:49 -22.55457 -47.07049 27433 ft 454 kts 288°
2026-05-06 09:50 -22.54475 -47.10275 27683 ft 451 kts 281°
2026-05-06 09:50 -22.53668 -47.13563 27930 ft 453 kts 281°
2026-05-06 09:50 -22.52858 -47.16856 28182 ft 454 kts 281°
2026-05-06 09:50 -22.52040 -47.20164 28444 ft 456 kts 281°
2026-05-06 09:51 -22.51216 -47.23475 28704 ft 457 kts 281°
2026-05-06 09:51 -22.50387 -47.26793 28994 ft 457 kts 280°
2026-05-06 09:51 -22.49557 -47.30103 29345 ft 456 kts 280°
2026-05-06 09:51 -22.48730 -47.33410 29690 ft 454 kts 280°
2026-05-06 09:52 -22.47915 -47.36656 30042 ft 453 kts 280°
2026-05-06 09:52 -22.47094 -47.39937 30365 ft 452 kts 279°
2026-05-06 09:52 -22.46277 -47.43209 30658 ft 451 kts 279°
2026-05-06 09:52 -22.45461 -47.46473 30960 ft 449 kts 279°
2026-05-06 09:53 -22.44645 -47.49730 31247 ft 448 kts 279°
2026-05-06 09:53 -22.43786 -47.52969 31532 ft 450 kts 283°
2026-05-06 09:53 -22.42479 -47.56071 31800 ft 459 kts 294°
2026-05-06 09:53 -22.40621 -47.58913 32067 ft 469 kts 304°
2026-05-06 09:54 -22.38359 -47.61479 32325 ft 472 kts 307°
2026-05-06 09:54 -22.36063 -47.64022 32587 ft 472 kts 307°
2026-05-06 09:54 -22.33777 -47.66563 32854 ft 472 kts 306°
2026-05-06 09:54 -22.31495 -47.69101 33125 ft 471 kts 306°
2026-05-06 09:55 -22.29218 -47.71637 33405 ft 470 kts 306°
2026-05-06 09:55 -22.26945 -47.74171 33680 ft 469 kts 306°
2026-05-06 09:55 -22.24674 -47.76702 33923 ft 469 kts 306°
2026-05-06 09:55 -22.22433 -47.79197 34126 ft 470 kts 306°
2026-05-06 09:56 -22.17898 -47.84250 34196 ft 467 kts 305°
2026-05-06 09:56 -22.13383 -47.89274 34196 ft 466 kts 305°
2026-05-06 09:57 -22.08870 -47.94283 34177 ft 466 kts 306°
2026-05-06 09:57 -22.04341 -47.99301 34189 ft 467 kts 306°
2026-05-06 09:58 -21.99801 -48.04325 34190 ft 468 kts 306°
2026-05-06 09:58 -21.95258 -48.09356 34194 ft 468 kts 305°
2026-05-06 09:59 -21.90713 -48.14386 34196 ft 469 kts 306°
2026-05-06 09:59 -21.86163 -48.19409 34198 ft 469 kts 306°
2026-05-06 10:00 -21.81639 -48.24403 34190 ft 469 kts 305°
2026-05-06 10:00 -21.77087 -48.29425 34193 ft 469 kts 306°
2026-05-06 10:01 -21.72529 -48.34451 34185 ft 469 kts 306°
2026-05-06 10:01 -21.67968 -48.39469 34183 ft 470 kts 306°
2026-05-06 10:02 -21.63395 -48.44496 34179 ft 470 kts 306°
2026-05-06 10:02 -21.58827 -48.49514 34182 ft 470 kts 306°
2026-05-06 10:03 -21.54252 -48.54537 34182 ft 470 kts 306°
2026-05-06 10:03 -21.49670 -48.59562 34170 ft 471 kts 306°
2026-05-06 10:04 -21.45085 -48.64580 34172 ft 471 kts 306°
2026-05-06 10:04 -21.40524 -48.69571 34170 ft 471 kts 306°
2026-05-06 10:05 -21.35924 -48.74590 34164 ft 472 kts 306°
2026-05-06 10:05 -21.31328 -48.79607 34170 ft 472 kts 306°
2026-05-06 10:06 -21.26724 -48.84631 34168 ft 472 kts 306°
2026-05-06 10:06 -21.22120 -48.89656 34169 ft 472 kts 306°
2026-05-06 10:07 -21.17515 -48.94683 34170 ft 473 kts 306°
2026-05-06 10:07 -21.12909 -48.99705 34164 ft 473 kts 306°
2026-05-06 10:08 -21.08299 -49.04726 34170 ft 473 kts 306°
2026-05-06 10:08 -21.03682 -49.09744 34167 ft 473 kts 306°
2026-05-06 10:09 -20.99097 -49.14727 34170 ft 473 kts 306°
2026-05-06 10:09 -20.94480 -49.19743 34164 ft 473 kts 306°
2026-05-06 10:10 -20.89864 -49.24752 34167 ft 473 kts 306°
2026-05-06 10:10 -20.85995 -49.28956 34171 ft 473 kts 306°
2026-05-06 10:11 -20.81373 -49.33967 34169 ft 473 kts 306°
2026-05-06 10:11 -20.76784 -49.38939 34157 ft 473 kts 306°
2026-05-06 10:12 -20.72150 -49.43938 34185 ft 474 kts 307°
2026-05-06 10:12 -20.67509 -49.48934 34182 ft 474 kts 306°
2026-05-06 10:13 -20.62875 -49.53936 34176 ft 474 kts 306°
2026-05-06 10:13 -20.58243 -49.58934 34161 ft 474 kts 307°
2026-05-06 10:14 -20.53608 -49.63932 34155 ft 474 kts 307°
2026-05-06 10:14 -20.48972 -49.68927 34155 ft 474 kts 307°
2026-05-06 10:15 -20.44402 -49.73837 34159 ft 474 kts 307°
2026-05-06 10:15 -20.39759 -49.78829 34161 ft 474 kts 307°
2026-05-06 10:16 -20.35118 -49.83822 34158 ft 474 kts 307°
2026-05-06 10:16 -20.30472 -49.88811 34162 ft 474 kts 307°
2026-05-06 10:17 -20.25860 -49.93756 34163 ft 474 kts 307°
2026-05-06 10:17 -20.21208 -49.98726 34158 ft 474 kts 307°
2026-05-06 10:18 -20.16559 -50.03696 34159 ft 473 kts 307°
2026-05-06 10:18 -20.11919 -50.08669 34148 ft 473 kts 307°
2026-05-06 10:19 -20.07271 -50.13635 34160 ft 474 kts 307°
2026-05-06 10:19 -20.02614 -50.18588 34154 ft 474 kts 307°
2026-05-06 10:20 -19.97962 -50.23554 34150 ft 474 kts 307°
2026-05-06 10:20 -19.93309 -50.28513 34154 ft 474 kts 308°
2026-05-06 10:21 -19.88649 -50.33465 34156 ft 474 kts 308°
2026-05-06 10:21 -19.83991 -50.38412 34158 ft 473 kts 308°
2026-05-06 10:22 -19.79338 -50.43353 34154 ft 473 kts 308°
2026-05-06 10:22 -19.74677 -50.48287 34149 ft 473 kts 308°
2026-05-06 10:23 -19.70028 -50.53220 34153 ft 472 kts 308°
2026-05-06 10:23 -19.65419 -50.58123 34153 ft 471 kts 307°
2026-05-06 10:24 -19.61066 -50.63267 34146 ft 467 kts 303°
2026-05-06 10:24 -19.56934 -50.68571 34138 ft 466 kts 302°
2026-05-06 10:25 -19.52779 -50.73860 34131 ft 467 kts 303°
2026-05-06 10:25 -19.48536 -50.79094 34137 ft 468 kts 304°
2026-05-06 10:26 -19.44262 -50.84308 34142 ft 469 kts 304°
2026-05-06 10:26 -19.40006 -50.89528 34138 ft 468 kts 304°
2026-05-06 10:27 -19.35759 -50.94752 34133 ft 468 kts 304°
2026-05-06 10:27 -19.31507 -50.99970 34136 ft 468 kts 304°
2026-05-06 10:28 -19.27252 -51.05187 34144 ft 468 kts 304°
2026-05-06 10:28 -19.23028 -51.10374 34146 ft 468 kts 304°
2026-05-06 10:29 -19.18747 -51.15619 34142 ft 468 kts 304°
2026-05-06 10:29 -19.14516 -51.20792 34128 ft 468 kts 304°
2026-05-06 10:30 -19.10254 -51.26001 34136 ft 468 kts 304°
2026-05-06 10:30 -19.05991 -51.31216 34138 ft 469 kts 304°
2026-05-06 10:31 -19.01722 -51.36425 34138 ft 469 kts 304°
2026-05-06 10:31 -18.97448 -51.41635 34146 ft 469 kts 304°
2026-05-06 10:32 -18.93180 -51.46844 34145 ft 469 kts 304°
2026-05-06 10:32 -18.88912 -51.52051 34150 ft 469 kts 304°
2026-05-06 10:33 -18.84637 -51.57250 34154 ft 469 kts 304°
2026-05-06 10:33 -18.80366 -51.62437 34153 ft 468 kts 304°
2026-05-06 10:34 -18.76090 -51.67621 34147 ft 468 kts 305°
2026-05-06 10:34 -18.71816 -51.72808 34145 ft 468 kts 305°
2026-05-06 10:35 -18.67542 -51.78001 34149 ft 469 kts 304°
2026-05-06 10:35 -18.63264 -51.83195 34152 ft 469 kts 305°
2026-05-06 10:36 -18.58977 -51.88374 34161 ft 469 kts 305°
2026-05-06 10:36 -18.54687 -51.93552 34153 ft 469 kts 305°
2026-05-06 10:37 -18.50430 -51.98697 34156 ft 469 kts 305°
2026-05-06 10:37 -18.46149 -52.03883 34157 ft 469 kts 305°
2026-05-06 10:38 -18.41873 -52.09059 34158 ft 469 kts 306°
2026-05-06 10:38 -18.37581 -52.14227 34161 ft 469 kts 306°
2026-05-06 10:39 -18.33283 -52.19392 34163 ft 469 kts 306°
2026-05-06 10:39 -18.28987 -52.24560 34167 ft 469 kts 306°
2026-05-06 10:40 -18.24688 -52.29730 34160 ft 469 kts 306°
2026-05-06 10:40 -18.20394 -52.34897 34166 ft 469 kts 306°
2026-05-06 10:41 -18.16092 -52.40062 34171 ft 469 kts 306°
2026-05-06 10:41 -18.11787 -52.45221 34166 ft 469 kts 306°
2026-05-06 10:42 -18.07481 -52.50379 34163 ft 469 kts 306°
2026-05-06 10:42 -18.03177 -52.55540 34171 ft 470 kts 307°
2026-05-06 10:43 -17.98867 -52.60690 34174 ft 470 kts 307°
2026-05-06 10:44 -17.92424 -52.68386 34173 ft 469 kts 307°
2026-05-06 10:44 -17.88115 -52.73531 34172 ft 469 kts 307°
2026-05-06 10:45 -17.83803 -52.78680 34181 ft 469 kts 307°
2026-05-06 10:45 -17.79490 -52.83826 34179 ft 469 kts 307°
2026-05-06 10:46 -17.75174 -52.88969 34177 ft 469 kts 307°
2026-05-06 10:46 -17.70853 -52.94105 34182 ft 469 kts 307°
2026-05-06 10:47 -17.66539 -52.99242 34166 ft 470 kts 307°
2026-05-06 10:47 -17.62221 -53.04384 34168 ft 470 kts 307°
2026-05-06 10:48 -17.57897 -53.09523 34162 ft 470 kts 307°
2026-05-06 10:48 -17.53571 -53.14662 34166 ft 470 kts 307°
2026-05-06 10:49 -17.49236 -53.19794 34162 ft 470 kts 307°
2026-05-06 10:49 -17.44907 -53.24924 34158 ft 470 kts 307°
2026-05-06 10:50 -17.40570 -53.30062 34152 ft 471 kts 307°
2026-05-06 10:50 -17.36223 -53.35193 34153 ft 471 kts 307°
2026-05-06 10:51 -17.31907 -53.40292 34153 ft 471 kts 307°
2026-05-06 10:51 -17.27564 -53.45426 34151 ft 471 kts 307°
2026-05-06 10:52 -17.23225 -53.50558 34152 ft 471 kts 308°
2026-05-06 10:52 -17.18879 -53.55695 34152 ft 472 kts 308°
2026-05-06 10:53 -17.14520 -53.60827 34151 ft 472 kts 308°
2026-05-06 10:53 -17.10196 -53.65983 34148 ft 470 kts 303°
2026-05-06 10:54 -17.06886 -53.71784 34149 ft 464 kts 294°
2026-05-06 10:54 -17.03799 -53.77713 34140 ft 464 kts 295°
2026-05-06 10:55 -17.00700 -53.83638 34150 ft 464 kts 295°
2026-05-06 10:55 -16.97588 -53.89552 34143 ft 464 kts 295°
2026-05-06 10:56 -16.94508 -53.95426 34143 ft 464 kts 295°
2026-05-06 10:56 -16.91406 -54.01342 34140 ft 464 kts 295°
2026-05-06 10:57 -16.88304 -54.07252 34142 ft 464 kts 295°
2026-05-06 10:57 -16.85208 -54.13160 34143 ft 464 kts 295°
2026-05-06 10:58 -16.82107 -54.19056 34123 ft 464 kts 295°
2026-05-06 10:58 -16.79000 -54.24952 34123 ft 463 kts 295°
2026-05-06 10:59 -16.75898 -54.30848 34127 ft 463 kts 295°
2026-05-06 10:59 -16.72796 -54.36733 34121 ft 463 kts 295°
2026-05-06 11:00 -16.69685 -54.42614 34121 ft 463 kts 295°
2026-05-06 11:00 -16.66595 -54.48454 34113 ft 463 kts 295°
2026-05-06 11:01 -16.63486 -54.54333 34115 ft 463 kts 295°
2026-05-06 11:01 -16.60385 -54.60211 34102 ft 463 kts 295°
2026-05-06 11:02 -16.57266 -54.66110 33746 ft 466 kts 295°
2026-05-06 11:02 -16.55708 -54.69118 32536 ft 478 kts 295°
2026-05-06 11:02 -16.54134 -54.72208 31466 ft 486 kts 295°
2026-05-06 11:02 -16.52550 -54.75337 30490 ft 491 kts 294°
2026-05-06 11:03 -16.50951 -54.78497 29456 ft 495 kts 295°
2026-05-06 11:03 -16.49341 -54.81668 28654 ft 494 kts 295°
2026-05-06 11:03 -16.47734 -54.84814 27947 ft 490 kts 295°
2026-05-06 11:03 -16.46132 -54.87936 27315 ft 486 kts 295°
2026-05-06 11:04 -16.45077 -54.89986 26906 ft 483 kts 295°
2026-05-06 11:04 -16.43504 -54.93030 25982 ft 473 kts 295°
2026-05-06 11:04 -16.41957 -54.96026 24958 ft 467 kts 296°
2026-05-06 11:04 -16.40433 -54.98983 24127 ft 457 kts 296°
2026-05-06 11:05 -16.38964 -55.01834 23547 ft 436 kts 296°
2026-05-06 11:05 -16.37104 -55.05456 22772 ft 425 kts 296°
2026-05-06 11:05 -16.35721 -55.08159 22257 ft 421 kts 296°
2026-05-06 11:05 -16.34793 -55.09969 21909 ft 418 kts 296°
2026-05-06 11:06 -16.33428 -55.12628 21428 ft 414 kts 296°
2026-05-06 11:06 -16.32079 -55.15255 20941 ft 410 kts 296°
2026-05-06 11:06 -16.30740 -55.17859 20480 ft 406 kts 296°
2026-05-06 11:06 -16.29411 -55.20438 20012 ft 403 kts 296°
2026-05-06 11:07 -16.28093 -55.22997 19546 ft 400 kts 296°
2026-05-06 11:07 -16.26779 -55.25541 19087 ft 398 kts 297°
2026-05-06 11:07 -16.25474 -55.28069 18610 ft 396 kts 297°
2026-05-06 11:07 -16.24190 -55.30559 18121 ft 395 kts 297°
2026-05-06 11:08 -16.22898 -55.33069 17630 ft 392 kts 297°
2026-05-06 11:08 -16.21612 -55.35561 17150 ft 390 kts 297°
2026-05-06 11:08 -16.20331 -55.38039 16661 ft 388 kts 297°
2026-05-06 11:08 -16.19056 -55.40503 16171 ft 386 kts 298°
2026-05-06 11:09 -16.17788 -55.42955 15689 ft 384 kts 298°
2026-05-06 11:09 -16.16522 -55.45401 15195 ft 383 kts 298°
2026-05-06 11:09 -16.15260 -55.47837 14695 ft 382 kts 298°
2026-05-06 11:09 -16.13999 -55.50271 14196 ft 382 kts 298°
2026-05-06 11:10 -16.12743 -55.52697 13671 ft 381 kts 298°
2026-05-06 11:10 -16.11488 -55.55116 13149 ft 379 kts 298°
2026-05-06 11:10 -16.10241 -55.57514 12636 ft 376 kts 298°
2026-05-06 11:10 -16.09004 -55.59897 12125 ft 373 kts 298°
2026-05-06 11:11 -16.07774 -55.62269 11612 ft 371 kts 298°
2026-05-06 11:11 -16.06554 -55.64625 11098 ft 369 kts 298°
2026-05-06 11:11 -16.05341 -55.66969 10689 ft 364 kts 298°
2026-05-06 11:11 -16.04166 -55.69241 10557 ft 350 kts 298°
2026-05-06 11:12 -16.03083 -55.71334 10447 ft 338 kts 298°
2026-05-06 11:12 -16.02002 -55.73414 10327 ft 326 kts 298°
2026-05-06 11:12 -16.00930 -55.75470 10207 ft 311 kts 298°
2026-05-06 11:12 -15.99939 -55.77373 9790 ft 296 kts 298°
2026-05-06 11:13 -15.98983 -55.79213 9505 ft 280 kts 299°
2026-05-06 11:13 -15.98078 -55.80952 9150 ft 278 kts 299°
2026-05-06 11:13 -15.97156 -55.82727 8812 ft 276 kts 299°
2026-05-06 11:13 -15.96258 -55.84457 8416 ft 270 kts 300°
2026-05-06 11:14 -15.95368 -55.86169 7915 ft 269 kts 300°
2026-05-06 11:14 -15.94481 -55.87872 7417 ft 268 kts 300°
2026-05-06 11:14 -15.93597 -55.89572 6925 ft 267 kts 301°
2026-05-06 11:14 -15.92711 -55.91274 6385 ft 269 kts 301°
2026-05-06 11:15 -15.91824 -55.92978 5888 ft 268 kts 301°
2026-05-06 11:15 -15.90948 -55.94665 5465 ft 264 kts 301°
2026-05-06 11:15 -15.90083 -55.96331 5108 ft 255 kts 302°
2026-05-06 11:15 -15.89256 -55.97893 4864 ft 241 kts 306°
2026-05-06 11:16 -15.88241 -55.99172 4486 ft 233 kts 322°
2026-05-06 11:16 -15.86932 -56.00133 4278 ft 229 kts 335°
2026-05-06 11:16 -15.85528 -56.00909 4159 ft 229 kts 337°
2026-05-06 11:16 -15.84111 -56.01657 4045 ft 228 kts 337°
2026-05-06 11:17 -15.82700 -56.02406 3956 ft 228 kts 337°
2026-05-06 11:17 -15.81290 -56.03156 3731 ft 227 kts 337°
2026-05-06 11:17 -15.79885 -56.03905 3450 ft 227 kts 337°
2026-05-06 11:17 -15.78487 -56.04649 3174 ft 225 kts 337°
2026-05-06 11:18 -15.77096 -56.05390 2885 ft 224 kts 337°
2026-05-06 11:18 -15.75729 -56.06118 2629 ft 216 kts 337°
2026-05-06 11:18 -15.74422 -56.06814 2333 ft 206 kts 337°
2026-05-06 11:18 -15.73195 -56.07469 2087 ft 188 kts 337°
2026-05-06 11:19 -15.72107 -56.08049 1846 ft 167 kts 337°
2026-05-06 11:19 -15.71111 -56.08578 1640 ft 157 kts 337°
2026-05-06 11:19 -15.70142 -56.09092 1434 ft 153 kts 337°
2026-05-06 11:19 -15.69214 -56.09585 1267 ft 151 kts 335°
2026-05-06 11:20 -15.68284 -56.10079 1086 ft 149 kts 334°
2026-05-06 11:20 -15.67365 -56.10567 892 ft 148 kts 333°
2026-05-06 11:20 -15.66452 -56.11054 685 ft 147 kts 333°
2026-05-06 11:20 -15.65567 -56.11525 602 ft 129 kts 333°
2026-05-06 11:21 -15.65035 -56.11806 615 ft 39 kts 333°
2026-05-06 11:21 -15.64836 -56.11912 615 ft 30 kts 333°
2026-05-06 11:21 -15.64663 -56.12004 629 ft 26 kts 333°
2026-05-06 11:21 -15.64510 -56.12086 627 ft 23 kts 333°
2026-05-06 11:22 -15.64406 -56.12165 628 ft 11 kts 355°
2026-05-06 11:22 -15.64440 -56.12123 627 ft 15 kts 153°
2026-05-06 11:22 -15.64553 -56.12062 618 ft 20 kts 152°
2026-05-06 11:22 -15.64680 -56.11996 621 ft 21 kts 154°
2026-05-06 11:23 -15.64809 -56.11928 618 ft 21 kts 153°
2026-05-06 11:23 -15.64946 -56.11854 615 ft 22 kts 153°
2026-05-06 11:23 -15.65055 -56.11831 615 ft 13 kts 222°
2026-05-06 11:23 -15.65079 -56.11873 613 ft 4 kts 243°
2026-05-06 11:24 -15.65070 -56.11917 621 ft 13 kts 321°
2026-05-06 11:24 -15.64986 -56.11963 614 ft 7 kts 332°
2026-05-06 11:24 -15.64947 -56.11984 613 ft 6 kts 333°
2026-05-06 11:24 -15.64915 -56.12000 610 ft 4 kts 333°
2026-05-06 11:25 -15.64882 -56.12017 619 ft 7 kts 331°
2026-05-06 11:25 -15.64879 -56.12047 611 ft 6 kts 254°
2026-05-06 11:25 -15.64889 -56.12068 616 ft 0 kts 243°
2026-05-06 11:25 -15.64890 -56.12068 616 ft 0 kts 243°